Location: Pinon Hills
(34.4429°N, 117.6403°W)
Time: 23:34:33
(UTC-08:00)

Uosat F - Visible Passes

Search period start: 17 December 2014 00:00
Search period end: 27 December 2014 00:00
Orbit: 751 x 763 km, 98.7° (Epoch: 17 December)

Date Brightness Start Highest point End Pass type
(mag) Time Alt. Az. Time Alt. Az. Time Alt. Az.
17 Dec 12.9 04:39:24 10° N 04:48:06 18° SSW 04:49:20 10° SSW visible
18 Dec 13.2 04:00:23 10° NNE 04:08:35 18° SSE 04:09:54 10° S visible
18 Dec 13.0 05:40:16 10° NNW 05:40:39 11° NNW 05:40:39 11° NNW visible
19 Dec 13.0 04:59:57 10° N 05:09:05 12° SW 05:09:22 10° SW visible
20 Dec 13.1 04:20:34 10° NNE 04:29:33 16° S 04:30:33 10° S visible
20 Dec 14.6 17:13:24 10° WSW 17:14:20 10° W 17:15:16 10° W visible
21 Dec 13.7 03:50:01 12° SSE 03:50:01 12° SSE 03:50:30 10° SSE visible
21 Dec 13.1 05:20:44 10° NNW 05:21:10 12° NNW 05:21:10 12° NNW visible
22 Dec 13.3 04:40:57 10° N 04:50:30 12° SSW 04:50:53 10° SSW visible
23 Dec 13.5 04:10:56 13° S 04:10:56 13° S 04:11:29 10° S visible
24 Dec 13.3 05:01:31 10° N 05:01:49 12° N 05:01:49 12° N visible
25 Dec 13.4 04:31:50 12° S 04:31:50 12° S 04:32:06 10° S visible
25 Dec 14.6 17:15:23 10° W 17:15:53 10° W 17:16:24 10° W visible
26 Dec 13.3 05:22:18 10° NNW 05:22:20 10° NNW 05:22:20 10° NNW visible
